Flag for Germany Weather past 2 weeks in Neuwied, Rhineland-Palatinate, Germany

Now
73 °F

Scattered clouds.


Feels Like: 77 °F
Forecast: 57 / 78 °F
Wind: 13 mph from East

Location: Buechel

Current Time: Jul 24, 2014 at 1:51:28 PM

Latest Report: Jul 24, 2014 at 1:20 PM


Visibility: N/A

Pressure: 29.98 "Hg

Humidity: 50%

Dew point: 54 °F

Location of NeuwiedLocation

Historic Weather in Neuwied — Graph

°F

Neuwied temperature yesterday

Maximum temperature yesterday: 81 °F (at 3:20 PM)
Minimum temperature yesterday: 64 °F (at 4:20 AM)
Average temperature yesterday: 72 °F

Past Weeks' High & Low Weather Summary

 TemperatureHumidityPressure
High86 °F (Jul 18, 4:20 PM)100% (Jul 9, 3:49 PM)30.21 "Hg (Jul 9, 3:49 PM)
Low52 °F (Jul 9, 3:20 PM)29% (Jul 18, 5:20 PM)29.71 "Hg (Jul 9, 4:20 PM)
Average68 °F69%30.01 "Hg
* Reported Jul 9 3:20 PM — Jul 24 12:20 PM, Neuwied, Weather by CustomWeather, © 2014

Note: Actual official high and low records may vary slightly from our data, if they occured in-between our weather recording intervals... More about our weather records

Advertising

Neuwied weather history for previous 24 hours

 ConditionsComfort  
Time TempWeatherWind HumidityBarometerVisibility
12:20 PM
Jul 24
72 °FScattered clouds.12 mph53%29.98 "HgN/A
11:20 AM72 °FScattered clouds.9 mph57%29.98 "HgN/A
10:20 AM68 °FScattered clouds.10 mph60%29.98 "HgN/A
9:20 AM66 °FScattered clouds.10 mph64%29.98 "HgN/A
8:20 AM64 °FScattered clouds.8 mph68%29.98 "HgN/A
7:20 AM63 °FScattered clouds.9 mph73%29.98 "HgN/A
6:20 AM61 °FPassing clouds.10 mph77%29.98 "HgN/A
5:20 AM63 °FPassing clouds.9 mph73%29.98 "HgN/A
4:20 AM63 °FPassing clouds.10 mph73%29.98 "HgN/A
3:20 AM63 °FMild.10 mph73%30.01 "Hg5 mi
2:20 AM63 °FMild.9 mph77%30.01 "Hg6 mi
1:20 AM64 °FMild.8 mph68%30.01 "Hg6 mi
12:20 AM64 °FMild.8 mph73%30.04 "Hg6 mi
11:20 PM
Jul 23
66 °FMild.7 mph68%30.04 "Hg6 mi
10:20 PM68 °FMild.8 mph69%30.04 "Hg6 mi
9:20 PM72 °FMild.8 mph57%30.01 "HgN/A
8:20 PM75 °FMild.10 mph50%30.01 "HgN/A
7:20 PM77 °FWarm.7 mph42%30.01 "HgN/A
6:20 PM77 °FPleasantly warm.8 mph39%30.01 "HgN/A
5:20 PM77 °FPleasantly warm.14 mph39%30.04 "HgN/A
4:20 PM79 °FBroken clouds.13 mph37%30.04 "HgN/A
3:20 PM81 °FBroken clouds.14 mph34%30.04 "HgN/A
2:20 PM79 °FBroken clouds.13 mph37%30.04 "HgN/A
1:20 PM79 °FPartly sunny.13 mph42%30.07 "HgN/A
Weather by CustomWeather, © 2014

See weather overviewHow to use our weather pages